Mountain Home, ID

8:59 AM MDT on April 23, 2017 (GMT -0600)
Mountain Home Air Force Base

Weather History for KMUO - October, 2012

Change the Weather History Date:

Thursday, October 18, 2012

  Actual Average Record
Temperature  
Mean Temperature 46 °F 51 °F  
Max Temperature 63 °F 65 °F 89 °F (2003)
Min Temperature 28 °F 35 °F 16 °F (1966)
Degree Days  
Heating Degree Days 19 14  
Month to date heating degree days 228 197  
Cooling Degree Days 0 0  
Month to date cooling degree days 0 2  
Moisture  
Dew Point 28 °F    
Average Humidity 57    
Maximum Humidity 90    
Minimum Humidity 23    
Precipitation  
Precipitation 0.00 in 0.03 in 0.55 in (2007)
Month to date precipitation 0.19 0.39  
Sea Level Pressure  
Sea Level Pressure 30.26 in    
Wind  
Wind Speed 5 mph (East)    
Max Wind Speed 8 mph    
Max Gust Speed -    
Visibility 10 miles    
Events      
T = Trace of Precipitation, MM = Missing Value Source: NWS Daily Summary

Daily Weather History Graph

Daily Weather History Graph

Search for Another Location

Airport or City:

Trip Planner

Search our weather history database for the weather conditions in past years. The results will help you decide how hot, cold, wet, or windy it might be!

Date:

Astronomy

Oct. 18, 2012 Rise Set
Actual Time 8:01 AM MDT 6:54 PM MDT
Civil Twilight 7:32 AM MDT 7:23 PM MDT
Nautical Twilight 6:59 AM MDT 7:56 PM MDT
Astronomical Twilight 6:26 AM MDT 8:29 PM MDT
Moon 11:53 AM MDT (10/18) 9:28 PM MDT (10/18)
Length of Visible Light 11h 51m
Length of Day
10h 53m
Waxing Crescent, 15% of the Moon is Illuminated
Oct 18
Waxing Crescent
Oct 21
First Quarter
Oct 29
Full
Nov 6
Last Quarter
Nov 13
New

Hourly Weather History & Observations

Time (MDT) Temp. Windchill Dew Point Humidity Pressure Visibility Wind Dir Wind Speed Gust Speed Precip Events Conditions
12:55 AM 36.1 °F 30.6 °F 27.1 °F 70% 30.29 in 10.0 mi NNW 6.9 mph - N/A   Clear
1:55 AM 32.5 °F 29.3 °F 27.3 °F 81% 30.31 in 10.0 mi NE 3.5 mph - N/A   Clear
2:55 AM 37.8 °F 34.2 °F 28.9 °F 71% 30.31 in 10.0 mi NNW 4.6 mph - N/A   Clear
3:55 AM 31.3 °F 25.6 °F 27.7 °F 87% 30.31 in 10.0 mi West 5.8 mph - N/A   Clear
4:55 AM 32.9 °F 29.8 °F 28.6 °F 84% 30.31 in 10.0 mi North 3.5 mph - N/A   Clear
5:55 AM 33.8 °F - 28.2 °F 80% 30.31 in 10.0 mi Calm Calm - N/A   Clear
6:55 AM 34.7 °F 30.6 °F 27.3 °F 74% 30.32 in 10.0 mi West 4.6 mph - N/A   Clear
7:55 AM 28.8 °F 23.7 °F 26.2 °F 90% 30.35 in 10.0 mi East 4.6 mph - N/A   Clear
8:55 AM 31.5 °F 28.1 °F 28.6 °F 89% 30.36 in 10.0 mi East 3.5 mph - N/A   Clear
9:55 AM 39.0 °F 34.0 °F 31.8 °F 75% 30.38 in 10.0 mi ESE 6.9 mph - N/A   Clear
10:55 AM 45.3 °F 41.1 °F 30.9 °F 57% 30.36 in 10.0 mi ESE 8.1 mph - N/A   Clear
11:55 AM 48.9 °F - 30.2 °F 48% 30.35 in 10.0 mi East 6.9 mph - N/A   Clear
12:55 PM 52.7 °F - 28.6 °F 40% 30.33 in 10.0 mi ESE 4.6 mph - N/A   Clear
1:55 PM 56.3 °F - 27.9 °F 34% 30.30 in 10.0 mi ESE 5.8 mph - N/A   Clear
2:55 PM 59.2 °F - 26.1 °F 28% 30.25 in 10.0 mi ESE 5.8 mph - N/A   Clear
3:55 PM 62.1 °F - 26.1 °F 25% 30.22 in 10.0 mi ESE 8.1 mph - N/A   Clear
4:55 PM 63.1 °F - 24.6 °F 23% 30.19 in 10.0 mi ESE 5.8 mph - N/A   Clear
5:55 PM 62.2 °F - 23.7 °F 23% 30.17 in 10.0 mi ESE 5.8 mph - N/A   Clear
6:55 PM 55.2 °F - 25.9 °F 32% 30.16 in 10.0 mi SE 6.9 mph - N/A   Clear
7:55 PM 51.6 °F - 26.6 °F 38% 30.16 in 10.0 mi ESE 6.9 mph - N/A   Clear
8:55 PM 45.5 °F 41.8 °F 30.0 °F 55% 30.16 in 10.0 mi East 6.9 mph - N/A   Clear
9:55 PM 42.8 °F 41.1 °F 28.6 °F 57% 30.15 in 10.0 mi East 3.5 mph - N/A   Clear
10:55 PM 41.5 °F 37.1 °F 27.7 °F 58% 30.12 in 10.0 mi ESE 6.9 mph - N/A   Clear
11:55 PM 42.6 °F 38.4 °F 26.2 °F 52% 30.12 in 10.0 mi ESE 6.9 mph - N/A   Clear